User: anonymous   Login
Location: Unspecified
(0.0000°N, 0.0000°E)
Time: 09:16:49
(UTC+00:00)
Language:

Picosat 9 - Orbit

View from above orbital plane
View from above orbital plane
View from above satellite
View from above satellite

Ground track
Ground track

The orbit data is extracted from the following two-line orbital elements,

1 26930U 01043B   17086.85734910 -.00000052 +00000-0 +12195-4 0  9997
2 26930 066.9999 259.9617 0006468 312.7641 047.2915 14.30637619808854
Epoch (UTC): 27 March 2017 20:34:34
Eccentricity: 0.0006468
inclination: 66.9999°
perigee height: 785 km
apogee height: 794 km
right ascension of ascending node: 259.9617°
argument of perigee: 312.7641°
revolutions per day: 14.30637619
mean anomaly at epoch: 47.2915°
orbit number at epoch: 80885

The dashed part of the orbit path shows where the satellite is in the earth's shadow,  

DLR